FW7539 Weather Reports


Display with metric or nautical units.
time (UTC)temp
F
wind
direction
speed
MPH
gust
MPH
rain 1hr
in
rain 24hr
in
rain mn
in
humidity
%
barometer
mb
20260906014459 73 38 0.0 1.0 0.00 0.48 0.48 85 1012.6
20260906013959 73 39 0.0 1.0 0.00 0.48 0.48 85 1012.7
20260906013500 73 39 0.0 1.0 0.00 0.48 0.48 85 1012.7
20260906012959 73 39 0.0 1.0 0.00 0.48 0.48 85 1012.8
20260906012521 73 39 0.0 2.0 0.00 0.48 0.48 85 1012.8
20260906012000 73 39 0.0 2.0 0.00 0.48 0.48 85 1012.5
20260906011521 73 39 0.0 1.0 0.00 0.48 0.48 85 1012.2
20260906011000 73 39 0.0 1.0 0.00 0.48 0.48 84 1012.1
20260906010500 73 39 0.0 1.0 0.00 0.48 0.48 84 1012.1
20260906010000 73 39 0.0 1.0 0.00 0.48 0.48 85 1012.0
20260906005500 73 7 1.0 2.0 0.00 0.48 0.48 85 1012.1
20260906005000 73 249 1.0 2.0 0.00 0.48 0.48 85 1012.2
20260906004520 73 242 1.0 5.0 0.00 0.48 0.48 85 1012.2
20260906004021 73 241 1.0 5.0 0.01 0.48 0.48 85 1012.4
20260906003459 74 313 0.0 3.0 0.16 0.48 0.48 84 1012.0
20260906002959 74 0 0.0 0.0 0.20 0.48 0.48 84 1011.7
20260906002459 74 65 0.0 1.0 0.20 0.48 0.48 84 1011.7
20260906001959 74 65 0.0 2.0 0.20 0.48 0.48 84 1011.8
20260906001500 74 65 0.0 2.0 0.20 0.48 0.48 84 1011.8
20260906001021 74 130 0.0 2.0 0.20 0.48 0.48 84 1011.4
20260906000500 74 127 1.0 3.0 0.20 0.48 0.48 83 1011.3
20260906000000 74 106 1.0 3.0 0.20 0.48 0.48 82 1011.1
20260905235521 75 54 1.0 4.0 0.20 0.48 0.48 81 1011.1
20260905235000 76 1 2.0 10.0 0.20 0.48 0.48 79 1011.1
20260905234500 76 21 4.0 14.0 0.20 0.48 0.48 77 1011.1
20260905234000 78 34 5.0 14.0 0.19 0.47 0.47 75 1011.0
20260905233500 80 24 5.0 12.0 0.04 0.32 0.32 73 1012.1
20260905233000 82 17 5.0 15.0 0.00 0.28 0.28 67 1011.9
20260905232459 84 15 2.0 15.0 0.00 0.28 0.28 66 1011.8
20260905232000 84 234 0.0 1.0 0.00 0.28 0.28 70 1011.2
20260905231459 84 0 0.0 0.0 0.00 0.28 0.28 71 1010.9
20260905231000 84 0 0.0 0.0 0.00 0.28 0.28 72 1011.5
20260905230500 84 0 0.0 0.0 0.00 0.28 0.28 70 1011.3
20260905230000 85 0 0.0 0.0 0.00 0.28 0.28 69 1011.0
20260905225500 85 0 0.0 0.0 0.00 0.28 0.28 69 1010.8
20260905225000 86 0 0.0 0.0 0.00 0.28 0.28 68 1010.7
20260905224500 86 246 0.0 1.0 0.00 0.28 0.28 67 1011.0
20260905224000 87 246 0.0 1.0 0.00 0.28 0.28 64 1011.0
20260905223500 88 246 0.0 1.0 0.00 0.28 0.28 65 1010.9
20260905223000 88 246 0.0 2.0 0.00 0.28 0.28 63 1010.9
20260905222500 89 309 1.0 3.0 0.00 0.28 0.28 60 1010.9
20260905222000 89 343 1.0 3.0 0.00 0.28 0.28 58 1010.9
20260905221500 90 354 1.0 3.0 0.00 0.28 0.28 57 1011.0
20260905221000 91 339 1.0 4.0 0.00 0.28 0.28 56 1011.1
20260905220500 92 292 1.0 4.0 0.00 0.28 0.28 54 1011.1
20260905220000 92 282 1.0 3.0 0.00 0.28 0.28 54 1010.9
20260905215500 92 359 1.0 5.0 0.00 0.28 0.28 54 1010.8
20260905215020 92 18 1.0 5.0 0.00 0.28 0.28 55 1010.6
20260905214500 92 9 1.0 3.0 0.00 0.29 0.28 55 1010.8
20260905214000 92 13 1.0 7.0 0.00 0.29 0.28 56 1010.8
20260905213500 92 12 2.0 7.0 0.00 0.30 0.28 55 1010.7
20260905213000 92 5 2.0 6.0 0.00 0.53 0.28 55 1010.8
20260905212500 92 347 2.0 6.0 0.00 0.76 0.28 54 1010.9
20260905212021 92 294 2.0 6.0 0.00 0.88 0.28 55 1011.0
20260905211500 92 322 1.0 6.0 0.00 0.88 0.28 54 1011.1
20260905211021 92 291 1.0 5.0 0.00 0.88 0.28 54 1011.0
20260905210521 92 297 1.0 5.0 0.00 0.88 0.28 54 1011.2
20260905210021 91 320 2.0 5.0 0.00 0.88 0.28 55 1011.1
20260905205500 91 278 2.0 5.0 0.00 0.88 0.28 55 1011.2
20260905205000 90 299 2.0 5.0 0.00 0.88 0.28 57 1011.2
20260905204500 89 257 2.0 5.0 0.00 0.88 0.28 59 1011.3
20260905204000 89 230 2.0 5.0 0.00 0.88 0.28 57 1011.4
20260905203500 90 252 2.0 5.0 0.00 0.88 0.28 56 1011.4
20260905203000 90 301 2.0 4.0 0.00 0.88 0.28 56 1011.4
20260905202521 89 261 1.0 3.0 0.00 0.88 0.28 57 1011.5
20260905202021 89 335 2.0 4.0 0.00 0.88 0.28 56 1011.5
20260905201500 90 359 2.0 6.0 0.00 0.88 0.28 55 1011.5
20260905201021 90 360 1.0 6.0 0.00 0.88 0.28 55 1011.6
20260905200500 90 12 2.0 8.0 0.00 0.88 0.28 54 1011.7
20260905200000 91 14 3.0 8.0 0.00 0.88 0.28 55 1011.7
20260905195500 91 16 2.0 5.0 0.00 0.88 0.28 53 1011.7
20260905195000 91 340 1.0 5.0 0.00 0.88 0.28 55 1011.8
20260905194501 91 270 2.0 4.0 0.00 0.88 0.28 54 1012.0
20260905194000 90 282 2.0 4.0 0.00 0.88 0.28 54 1012.0
20260905193500 90 287 2.0 4.0 0.00 0.88 0.28 54 1011.9
20260905193022 90 348 2.0 7.0 0.00 0.88 0.28 54 1012.0
20260905192500 89 10 2.0 7.0 0.00 0.88 0.28 55 1012.2
20260905192000 89 12 2.0 5.0 0.00 0.88 0.28 55 1012.2
20260905191500 89 355 2.0 6.0 0.00 0.88 0.28 55 1012.4
20260905191000 89 320 2.0 6.0 0.00 0.88 0.28 55 1012.5
20260905190500 88 315 2.0 5.0 0.00 0.88 0.28 54 1012.6
20260905190000 88 81 1.0 4.0 0.00 0.88 0.28 57 1012.7
20260905185500 88 200 1.0 3.0 0.00 0.88 0.28 57 1012.7
20260905185021 88 212 1.0 5.0 0.00 0.88 0.28 56 1012.8
20260905184500 88 205 2.0 5.0 0.00 0.88 0.28 56 1012.8
20260905184000 88 345 2.0 4.0 0.00 0.88 0.28 57 1012.8
20260905183500 88 298 2.0 4.0 0.00 0.88 0.28 55 1012.8
20260905183000 88 252 2.0 4.0 0.00 0.88 0.28 55 1012.9
20260905182500 88 250 2.0 5.0 0.00 0.88 0.28 54 1012.9
20260905182000 88 253 3.0 9.0 0.00 0.88 0.28 55 1012.9
20260905181521 88 250 2.0 9.0 0.00 0.88 0.28 55 1013.0
20260905181000 88 254 1.0 5.0 0.00 0.88 0.28 55 1012.9
20260905180500 88 246 2.0 5.0 0.00 0.88 0.28 54 1013.0
20260905180000 87 247 2.0 5.0 0.00 0.88 0.28 55 1012.9
20260905175500 87 236 2.0 4.0 0.00 0.88 0.28 56 1012.8
20260905175000 87 167 2.0 5.0 0.00 0.88 0.28 58 1012.9
20260905174521 87 185 2.0 5.0 0.00 0.88 0.28 59 1012.8
20260905174000 87 227 2.0 5.0 0.00 0.88 0.28 56 1012.9
20260905173500 87 211 2.0 5.0 0.00 0.88 0.28 55 1012.9
20260905173000 87 201 2.0 8.0 0.00 0.88 0.28 56 1012.9
20260905172500 86 223 2.0 8.0 0.00 0.88 0.28 57 1012.8
20260905172000 86 219 2.0 7.0 0.00 0.88 0.28 57 1012.8
20260905171500 86 221 2.0 5.0 0.00 0.88 0.28 57 1012.8
20260905171022 86 257 2.0 5.0 0.00 0.88 0.28 57 1013.0
20260905170500 85 252 2.0 7.0 0.00 0.88 0.28 56 1013.2
20260905170021 85 241 2.0 7.0 0.00 0.88 0.28 57 1013.3
20260905165500 85 231 2.0 7.0 0.00 0.88 0.28 57 1013.3
20260905165000 85 245 2.0 7.0 0.00 0.88 0.28 57 1013.3
20260905164500 85 267 2.0 5.0 0.00 0.88 0.28 60 1013.4
20260905164021 85 269 2.0 5.0 0.00 0.88 0.28 57 1013.5
20260905163500 85 254 2.0 7.0 0.00 0.88 0.28 59 1013.7
20260905163000 84 258 1.0 7.0 0.00 0.88 0.28 61 1013.8
20260905162500 84 260 2.0 4.0 0.00 0.88 0.28 61 1013.9
20260905162021 83 261 2.0 4.0 0.00 0.88 0.28 63 1013.8
20260905161500 83 270 2.0 4.0 0.00 0.88 0.28 63 1013.7
20260905161000 83 243 2.0 4.0 0.00 0.88 0.28 62 1013.6
20260905160522 83 222 2.0 6.0 0.00 0.88 0.28 62 1013.7
20260905160021 82 249 2.0 6.0 0.00 0.88 0.28 61 1013.6
20260905155500 82 263 2.0 6.0 0.00 0.88 0.28 61 1013.6
20260905155000 81 258 2.0 5.0 0.00 0.88 0.28 63 1013.7
20260905154500 81 237 2.0 5.0 0.00 0.88 0.28 63 1013.6
20260905154000 81 218 2.0 6.0 0.00 0.88 0.28 64 1013.6
20260905153501 80 208 2.0 6.0 0.00 0.88 0.28 64 1013.5
20260905153000 80 185 2.0 7.0 0.00 0.88 0.28 64 1013.5
20260905152501 80 176 2.0 7.0 0.00 0.88 0.28 65 1013.5
20260905152000 79 212 3.0 7.0 0.00 0.88 0.28 66 1013.5
20260905151521 79 201 3.0 7.0 0.00 0.88 0.28 67 1013.6
20260905151000 79 148 2.0 5.0 0.00 0.88 0.28 67 1013.7
20260905150500 78 159 2.0 5.0 0.00 0.88 0.28 68 1013.8
20260905150000 78 162 2.0 5.0 0.00 0.88 0.28 67 1013.9
20260905145500 77 180 2.0 5.0 0.00 0.88 0.28 69 1013.8
20260905145000 77 192 2.0 4.0 0.00 0.88 0.28 73 1013.7
20260905144500 76 157 2.0 4.0 0.00 0.88 0.28 72 1013.6
20260905144001 76 141 2.0 4.0 0.00 0.88 0.28 73 1013.6
20260905143501 75 143 2.0 8.0 0.00 0.88 0.28 73 1013.6
20260905143001 75 146 2.0 8.0 0.00 0.88 0.28 75 1013.6
20260905142501 75 133 3.0 9.0 0.00 0.88 0.28 75 1013.6
20260905142021 74 141 3.0 9.0 0.00 0.88 0.28 75 1013.5
20260905141500 74 161 2.0 4.0 0.00 0.88 0.28 77 1013.7
20260905141000 74 143 2.0 5.0 0.00 0.88 0.28 80 1013.9
20260905140500 73 143 2.0 5.0 0.00 0.88 0.28 80 1013.8
20260905140021 73 141 2.0 5.0 0.00 0.88 0.28 81 1014.1
20260905135500 72 150 2.0 5.0 0.00 0.88 0.28 80 1014.3
20260905135000 72 145 1.0 4.0 0.00 0.88 0.28 81 1014.7
20260905134500 72 129 1.0 3.0 0.00 0.88 0.28 82 1014.7
20260905134000 71 136 2.0 3.0 0.00 0.88 0.28 83 1014.8
20260905133500 71 136 2.0 3.0 0.00 0.88 0.28 83 1015.0
20260905133000 70 136 1.0 5.0 0.00 0.88 0.28 84 1015.2
20260905132500 70 147 1.0 5.0 0.00 0.88 0.28 85 1015.4
20260905132000 70 171 1.0 4.0 0.00 0.88 0.28 85 1015.5
20260905131500 70 203 1.0 4.0 0.00 0.88 0.28 85 1015.6
20260905131021 69 261 1.0 2.0 0.00 0.88 0.28 85 1015.4
20260905130500 69 306 1.0 2.0 0.00 0.88 0.28 85 1015.3
20260905130001 69 307 1.0 2.0 0.00 0.88 0.28 85 1015.4
20260905125500 69 341 1.0 2.0 0.00 0.88 0.28 85 1015.4
20260905125001 69 15 0.0 2.0 0.00 0.88 0.28 85 1015.2
20260905124500 69 15 0.0 1.0 0.00 0.88 0.28 85 1015.0
20260905124001 69 14 0.0 1.0 0.00 0.88 0.28 85 1015.0
20260905123501 69 7 1.0 2.0 0.00 0.88 0.28 85 1014.8
20260905123001 68 3 0.0 2.0 0.00 0.88 0.28 85 1014.8
20260905122500 68 360 0.0 1.0 0.00 0.88 0.28 85 1014.9
20260905122000 68 360 0.0 1.0 0.00 0.88 0.28 85 1014.9
20260905121500 68 360 0.0 3.0 0.00 0.88 0.28 85 1014.8
20260905121001 68 360 0.0 3.0 0.00 0.88 0.28 85 1014.9
20260905120501 68 360 0.0 1.0 0.00 0.88 0.28 85 1014.9
20260905120000 68 360 0.0 1.0 0.00 0.88 0.28 85 1015.0
20260905115501 68 360 0.0 2.0 0.01 0.88 0.28 85 1015.1
20260905115001 68 6 0.0 3.0 0.01 0.88 0.28 85 1015.2
20260905114501 68 24 1.0 3.0 0.04 0.88 0.28 85 1015.2
20260905114022 68 20 1.0 4.0 0.08 0.88 0.28 85 1015.2
20260905113501 68 12 1.0 4.0 0.14 0.88 0.28 85 1015.1
20260905113001 68 36 1.0 3.0 0.21 0.88 0.28 85 1014.9
20260905112501 68 36 1.0 4.0 0.28 0.88 0.28 85 1015.0
20260905112000 68 39 1.0 4.0 0.28 0.88 0.28 85 1014.8
20260905111500 68 41 1.0 4.0 0.28 0.88 0.28 85 1015.0
20260905111000 68 45 2.0 7.0 0.28 0.88 0.28 85 1015.0
20260905110500 68 49 2.0 7.0 0.28 0.88 0.28 85 1015.0
20260905110000 68 41 2.0 6.0 0.28 0.88 0.28 85 1015.0
20260905105500 69 39 2.0 7.0 0.27 0.87 0.27 84 1015.1
20260905105001 69 32 3.0 9.0 0.27 0.87 0.27 84 1015.2
20260905104501 69 30 4.0 18.0 0.22 0.82 0.22 83 1015.3
20260905104001 70 17 5.0 20.0 0.18 0.78 0.18 83 1015.2
20260905103501 70 12 6.0 20.0 0.13 0.73 0.14 82 1015.4
20260905103001 71 16 9.0 24.0 0.05 0.65 0.05 80 1015.5
20260905102501 72 13 8.0 24.0 0.00 0.60 0.00 78 1015.1
20260905102000 72 13 7.0 21.0 0.00 0.60 0.00 80 1015.3
20260905101500 72 18 7.0 21.0 0.00 0.60 0.00 83 1015.0
20260905101000 72 12 6.0 20.0 0.00 0.60 0.00 85 1014.6
20260905100500 73 360 2.0 15.0 0.00 0.60 0.00 86 1014.6
20260905100021 73 5 0.0 1.0 0.00 0.60 0.00 86 1013.3
20260905095500 73 0 0.0 0.0 0.00 0.60 0.00 85 1013.1
20260905095000 72 0 0.0 0.0 0.00 0.60 0.00 85 1013.1
20260905094522 72 0 0.0 0.0 0.00 0.60 0.00 85 1013.0
20260905094022 72 0 0.0 0.0 0.00 0.60 0.00 85 1012.9
20260905093501 72 0 0.0 0.0 0.00 0.60 0.00 85 1012.9
20260905093001 72 0 0.0 0.0 0.00 0.60 0.00 85 1012.8
20260905092501 72 0 0.0 0.0 0.00 0.60 0.00 85 1012.9
20260905092001 72 0 0.0 0.0 0.00 0.60 0.00 85 1012.9
20260905091522 72 0 0.0 0.0 0.00 0.60 0.00 85 1012.9
20260905091000 72 5 0.0 1.0 0.00 0.60 0.00 85 1012.8
20260905090500 72 5 0.0 1.0 0.00 0.60 0.00 85 1012.8
20260905090000 72 0 0.0 0.0 0.00 0.60 0.00 85 1012.9
20260905085500 72 0 0.0 0.0 0.00 0.60 0.00 85 1012.9
20260905085022 72 0 0.0 0.0 0.00 0.60 0.00 85 1012.9
20260905084501 72 0 0.0 0.0 0.00 0.60 0.00 85 1012.9
20260905084000 72 5 0.0 1.0 0.00 0.60 0.00 85 1012.9
20260905083501 72 5 0.0 1.0 0.00 0.60 0.00 85 1013.0
20260905083000 72 5 0.0 1.0 0.00 0.60 0.00 85 1013.0
20260905082501 72 0 0.0 0.0 0.00 0.60 0.00 85 1013.0
20260905082001 72 0 0.0 0.0 0.00 0.60 0.00 85 1013.0
20260905081500 72 0 0.0 0.0 0.00 0.60 0.00 85 1012.9
20260905081021 72 0 0.0 0.0 0.00 0.60 0.00 85 1012.9
20260905080500 72 0 0.0 0.0 0.00 0.60 0.00 85 1012.8
20260905080000 73 0 0.0 0.0 0.00 0.60 0.00 85 1012.5
20260905075501 73 0 0.0 0.0 0.00 0.60 0.00 85 1012.5
20260905075001 73 0 0.0 0.0 0.00 0.60 0.00 85 1012.3
20260905074500 73 0 0.0 0.0 0.00 0.60 0.00 85 1012.3
20260905074000 73 0 0.0 0.0 0.00 0.60 0.00 85 1012.3
20260905073500 73 0 0.0 0.0 0.00 0.60 0.00 85 1012.1
20260905073001 73 0 0.0 0.0 0.00 0.60 0.00 85 1012.0
20260905072522 73 0 0.0 0.0 0.00 0.60 0.00 85 1012.1
20260905072001 73 5 0.0 1.0 0.00 0.60 0.00 85 1012.2
20260905071501 73 5 0.0 1.0 0.00 0.60 0.00 85 1012.2
20260905071022 73 5 0.0 1.0 0.00 0.60 0.00 85 1012.1
20260905070501 73 0 0.0 0.0 0.00 0.60 0.00 85 1012.1
20260905070001 73 0 0.0 0.0 0.00 0.60 0.00 85 1012.2
20260905065522 73 0 0.0 0.0 0.00 0.60 0.00 85 1012.4
20260905065001 73 5 0.0 1.0 0.00 0.60 0.00 85 1012.4
20260905064501 73 5 0.0 1.0 0.00 0.60 0.00 85 1012.5
20260905064001 73 0 0.0 0.0 0.00 0.60 0.00 85 1012.6
20260905063500 74 0 0.0 0.0 0.00 0.60 0.00 85 1012.8
20260905063000 74 0 0.0 0.0 0.00 0.60 0.00 85 1012.8
20260905062500 74 0 0.0 0.0 0.00 0.60 0.00 85 1012.9
20260905062000 74 0 0.0 0.0 0.00 0.60 0.00 85 1013.0
20260905061500 74 0 0.0 0.0 0.00 0.60 0.00 85 1013.0
20260905061000 74 0 0.0 0.0 0.00 0.60 0.00 85 1013.1
20260905060500 74 0 0.0 0.0 0.00 0.60 0.00 85 1012.9
20260905060000 74 0 0.0 0.0 0.00 0.60 0.00 85 1013.0
20260905055500 74 0 0.0 0.0 0.00 0.60 0.00 85 1013.1
20260905055021 74 0 0.0 0.0 0.00 0.60 0.00 85 1013.1
20260905054500 74 0 0.0 0.0 0.00 0.60 0.00 85 1013.2
20260905054000 74 0 0.0 0.0 0.00 0.60 0.00 85 1013.2
20260905053521 74 0 0.0 0.0 0.00 0.60 0.00 85 1013.3
20260905053001 74 0 0.0 0.0 0.00 0.60 0.00 85 1013.4
20260905052521 74 0 0.0 0.0 0.00 0.60 0.00 85 1013.4
20260905052001 74 0 0.0 0.0 0.00 0.60 0.00 85 1013.5
20260905051501 74 0 0.0 0.0 0.00 0.60 0.00 85 1013.6
20260905051001 74 0 0.0 0.0 0.00 0.60 0.00 85 1013.6
20260905050501 74 0 0.0 0.0 0.00 0.60 0.00 85 1013.6
20260905050001 74 0 0.0 0.0 0.00 0.60 0.00 85 1013.7
20260905045522 74 0 0.0 0.0 0.00 0.60 0.00 85 1013.7
20260905045001 74 0 0.0 0.0 0.00 0.60 0.00 85 1013.8
20260905044502 74 0 0.0 0.0 0.00 0.60 0.00 85 1013.8
20260905044001 74 0 0.0 0.0 0.00 0.60 0.00 85 1013.7
20260905043500 74 0 0.0 0.0 0.00 0.60 0.00 85 1013.7
20260905043021 75 0 0.0 0.0 0.00 0.60 0.00 85 1013.7
20260905042501 75 0 0.0 0.0 0.00 0.60 0.00 85 1013.7
20260905042001 75 0 0.0 0.0 0.00 0.60 0.00 85 1013.7
20260905041501 75 0 0.0 0.0 0.00 0.60 0.00 85 1013.7
20260905041001 75 0 0.0 0.0 0.00 0.60 0.00 85 1013.8
20260905040501 75 5 0.0 1.0 0.00 0.60 0.00 85 1013.9
20260905040022 75 5 0.0 1.0 0.00 0.60 0.00 85 1013.8
20260905035501 75 5 0.0 1.0 0.00 0.60 0.60 85 1013.8
20260905035001 75 0 0.0 0.0 0.00 0.60 0.60 85 1013.9
20260905034501 75 0 0.0 0.0 0.00 0.60 0.60 85 1013.9
20260905034022 75 0 0.0 0.0 0.00 0.60 0.60 85 1013.8
20260905033522 75 0 0.0 0.0 0.00 0.60 0.60 85 1013.8
20260905033001 75 0 0.0 0.0 0.00 0.60 0.60 85 1013.8
20260905032522 75 0 0.0 0.0 0.00 0.60 0.60 85 1013.8
20260905032001 75 5 0.0 1.0 0.00 0.60 0.60 85 1013.8
20260905031501 75 5 0.0 1.0 0.00 0.60 0.60 85 1013.8
20260905031001 75 5 0.0 1.0 0.00 0.60 0.60 85 1013.8
20260905030501 75 0 0.0 0.0 0.00 0.60 0.60 85 1013.8
20260905030001 75 0 0.0 0.0 0.00 0.60 0.60 85 1013.7
20260905025501 75 0 0.0 0.0 0.00 0.60 0.60 85 1013.7
20260905025000 75 5 0.0 1.0 0.00 0.60 0.60 85 1013.6
20260905024501 75 5 0.0 1.0 0.00 0.60 0.60 85 1013.7
20260905024022 75 5 0.0 1.0 0.00 0.60 0.60 85 1013.6
20260905023500 75 5 0.0 1.0 0.00 0.60 0.60 85 1013.6
20260905023001 75 0 0.0 0.0 0.00 0.60 0.60 85 1013.7
20260905022501 75 5 0.0 1.0 0.00 0.60 0.60 85 1013.7
20260905022001 75 5 0.0 1.0 0.00 0.60 0.60 85 1013.7
20260905021501 75 0 0.0 0.0 0.00 0.60 0.60 85 1013.7
20260905021001 75 0 0.0 0.0 0.00 0.60 0.60 85 1013.7
20260905020501 75 0 0.0 0.0 0.00 0.60 0.60 85 1013.6
20260905020001 75 0 0.0 0.0 0.00 0.60 0.60 85 1013.6
20260905015501 75 0 0.0 0.0 0.00 0.60 0.60 85 1013.5
20260905015001 75 0 0.0 0.0 0.00 0.60 0.60 85 1013.4